Simultaneous Nadir Overpasses (SNOs) Predictions

Prediction of SNOs between GOES-16 and TERRA Satellite Orbit:

Table of predicted SNOs for the next 14.0 days since TLE Epoch: 6/14/2024
Index Date Time (GOES-16) GOES-16 Lat,Lon TERRA Lat,Lon Distance(km) Time Diff (sec)
1 06/16/2024 02:47:07 -0.04, -75.20 -0.06, -75.34 15.61 80
2 06/18/2024 02:32:22 -0.04, -75.21 0.82, -71.14 462.94 80
3 06/18/2024 14:49:36 0.04, -75.22 0.23, -75.98 86.81 80
4 06/20/2024 14:34:51 0.04, -75.23 -0.68, -71.78 392.03 80
5 06/21/2024 02:52:14 -0.04, -75.23 -0.36, -76.65 162.13 80
6 06/23/2024 02:34:49 -0.03, -75.25 0.58, -72.46 316.99 80
7 06/23/2024 14:54:43 0.03, -75.25 0.47, -77.30 232.68 80
8 06/25/2024 14:39:57 0.03, -75.27 -0.43, -73.10 247.17 80
9 06/26/2024 03:00:00 -0.02, -75.28 -0.58, -77.97 306.33 80
10 06/28/2024 02:39:53 -0.02, -75.30 0.29, -73.76 174.73 80
11 06/28/2024 14:59:47 0.02, -75.31 0.70, -78.61 374.53 80
